TimePDT,TemperatureF,Dew PointF,Humidity,Sea Level PressureIn,VisibilityMPH,Wind Direction,Wind SpeedMPH,Gust SpeedMPH,PrecipitationIn,Events,Conditions,WindDirDegrees,DateUTC
12:15 AM,48.2,46.4,93,30.07,5.0,West,6.9,-,N/A,,Overcast,270,2012-11-02 07:15:00
12:35 AM,48.2,44.6,87,30.06,5.0,West,6.9,-,N/A,,Overcast,280,2012-11-02 07:35:00
12:55 AM,48.2,44.6,87,30.07,5.0,West,8.1,-,N/A,,Overcast,270,2012-11-02 07:55:00
1:15 AM,46.4,42.8,87,30.07,5.0,West,6.9,-,N/A,,Overcast,270,2012-11-02 08:15:00
1:35 AM,46.4,42.8,87,30.07,5.0,West,6.9,-,N/A,,Overcast,260,2012-11-02 08:35:00
1:55 AM,46.4,44.6,93,30.07,5.0,WSW,6.9,-,N/A,,Overcast,250,2012-11-02 08:55:00
2:15 AM,46.4,42.8,87,30.07,5.0,West,8.1,-,N/A,,Overcast,270,2012-11-02 09:15:00
2:35 AM,48.2,44.6,87,30.06,5.0,West,6.9,-,N/A,,Overcast,260,2012-11-02 09:35:00
2:55 AM,48.2,44.6,87,30.07,5.0,West,5.8,-,N/A,,Overcast,270,2012-11-02 09:55:00
3:15 AM,48.2,44.6,87,30.07,5.0,West,10.4,-,N/A,,Overcast,260,2012-11-02 10:15:00
3:35 AM,48.2,44.6,87,30.07,5.0,West,8.1,-,N/A,,Overcast,280,2012-11-02 10:35:00
3:55 AM,48.2,46.4,93,30.07,4.0,WNW,8.1,-,N/A,,Overcast,290,2012-11-02 10:55:00
4:15 AM,48.2,46.4,93,30.06,3.0,WNW,9.2,-,N/A,,Overcast,300,2012-11-02 11:15:00
4:35 AM,48.2,46.4,93,30.07,3.0,NW,9.2,-,N/A,,Overcast,310,2012-11-02 11:35:00
4:55 AM,48.2,48.2,100,30.07,3.0,NW,9.2,-,N/A,,Overcast,310,2012-11-02 11:55:00
5:15 AM,48.2,48.2,100,30.07,3.0,WNW,6.9,-,N/A,,Overcast,290,2012-11-02 12:15:00
5:35 AM,48.2,46.4,93,30.08,4.0,WNW,9.2,-,N/A,,Overcast,290,2012-11-02 12:35:00
5:55 AM,46.4,46.4,100,30.08,4.0,NW,9.2,-,N/A,,Overcast,310,2012-11-02 12:55:00
6:15 AM,46.4,46.4,100,30.08,4.0,NW,8.1,-,N/A,,Overcast,310,2012-11-02 13:15:00
6:35 AM,46.4,46.4,100,30.08,3.0,WNW,6.9,-,N/A,,Overcast,300,2012-11-02 13:35:00
6:55 AM,46.4,46.4,100,30.08,3.0,WNW,5.8,-,N/A,,Mostly Cloudy,290,2012-11-02 13:55:00
7:15 AM,46.4,46.4,100,30.09,2.5,NNW,4.6,-,N/A,,Mostly Cloudy,330,2012-11-02 14:15:00
7:35 AM,44.6,44.6,100,30.09,1.2,Calm,Calm,-,N/A,,Overcast,0,2012-11-02 14:35:00
7:55 AM,44.6,44.6,100,30.09,2.0,WNW,3.5,-,N/A,,Mostly Cloudy,300,2012-11-02 14:55:00
8:15 AM,46.4,46.4,100,30.09,2.0,Calm,Calm,-,N/A,,Clear,0,2012-11-02 15:15:00
8:35 AM,48.2,46.4,93,30.09,4.0,Calm,Calm,-,N/A,,Clear,0,2012-11-02 15:35:00
8:55 AM,50.0,42.8,76,30.09,6.0,Calm,Calm,-,N/A,,Haze,0,2012-11-02 15:55:00
9:15 AM,50.0,44.6,82,30.09,5.0,Calm,Calm,-,N/A,,Haze,0,2012-11-02 16:15:00
9:35 AM,51.8,42.8,71,30.09,7.0,Calm,Calm,-,N/A,,Clear,0,2012-11-02 16:35:00
9:55 AM,53.6,41.0,62,30.09,7.0,Calm,Calm,-,N/A,,Clear,0,2012-11-02 16:55:00
10:15 AM,55.4,41.0,58,30.09,9.0,Calm,Calm,-,N/A,,Clear,0,2012-11-02 17:15:00
10:35 AM,57.2,41.0,55,30.09,8.0,WNW,3.5,-,N/A,,Clear,300,2012-11-02 17:35:00
10:55 AM,57.2,41.0,55,30.09,6.0,WNW,4.6,-,N/A,,Haze,300,2012-11-02 17:55:00
11:15 AM,59.0,41.0,51,30.09,9.0,WNW,8.1,-,N/A,,Clear,300,2012-11-02 18:15:00
11:35 AM,59.0,41.0,51,30.08,7.0,NW,8.1,-,N/A,,Clear,310,2012-11-02 18:35:00
11:55 AM,59.0,44.6,59,30.08,7.0,NW,15.0,-,N/A,,Clear,310,2012-11-02 18:55:00
12:15 PM,59.0,44.6,59,30.07,6.0,NW,15.0,-,N/A,,Haze,320,2012-11-02 19:15:00
12:35 PM,59.0,44.6,59,30.07,7.0,NW,17.3,21.9,N/A,,Clear,320,2012-11-02 19:35:00
12:55 PM,57.2,46.4,67,30.07,5.0,NW,13.8,-,N/A,,Haze,310,2012-11-02 19:55:00
1:15 PM,59.0,46.4,63,30.06,5.0,NW,12.7,-,N/A,,Haze,320,2012-11-02 20:15:00
1:35 PM,59.0,46.4,63,30.06,6.0,NW,16.1,-,N/A,,Haze,320,2012-11-02 20:35:00
1:55 PM,59.0,46.4,63,30.05,7.0,NW,12.7,-,N/A,,Clear,310,2012-11-02 20:55:00
2:15 PM,59.0,46.4,63,30.05,7.0,NW,16.1,-,N/A,,Clear,320,2012-11-02 21:15:00
2:35 PM,57.2,46.4,67,30.04,7.0,NW,16.1,-,N/A,,Clear,320,2012-11-02 21:35:00
2:55 PM,57.2,46.4,67,30.05,5.0,NW,17.3,-,N/A,,Haze,310,2012-11-02 21:55:00
3:15 PM,55.4,46.4,72,30.05,5.0,NW,15.0,19.6,N/A,,Haze,310,2012-11-02 22:15:00
3:35 PM,55.4,46.4,72,30.06,5.0,NW,15.0,-,N/A,,Haze,320,2012-11-02 22:35:00
3:55 PM,55.4,46.4,72,30.06,5.0,NW,12.7,-,N/A,,Haze,310,2012-11-02 22:55:00
4:15 PM,55.4,46.4,72,30.06,5.0,NW,11.5,-,N/A,,Haze,320,2012-11-02 23:15:00
4:35 PM,53.6,46.4,77,30.06,5.0,NW,16.1,-,N/A,,Haze,320,2012-11-02 23:35:00
4:55 PM,51.8,46.4,82,30.06,4.0,NW,12.7,-,N/A,,Haze,320,2012-11-02 23:55:00
5:15 PM,51.8,46.4,82,30.06,3.0,NW,11.5,-,N/A,,Haze,320,2012-11-03 00:15:00
5:35 PM,50.0,46.4,87,30.07,3.0,NW,11.5,-,N/A,,Clear,310,2012-11-03 00:35:00
5:55 PM,50.0,46.4,87,30.07,3.0,NW,9.2,-,N/A,,Clear,310,2012-11-03 00:55:00
6:15 PM,48.2,46.4,93,30.08,2.5,NW,11.5,16.1,N/A,,Scattered Clouds,310,2012-11-03 01:15:00
6:35 PM,50.0,46.4,87,30.09,3.0,WNW,8.1,-,N/A,,Overcast,300,2012-11-03 01:35:00
6:55 PM,48.2,46.4,93,30.09,3.0,NW,8.1,-,N/A,,Overcast,320,2012-11-03 01:55:00
7:15 PM,48.2,46.4,93,30.10,3.0,NW,9.2,-,N/A,,Overcast,320,2012-11-03 02:15:00
7:35 PM,48.2,46.4,93,30.10,3.0,NW,6.9,-,N/A,,Overcast,310,2012-11-03 02:35:00
7:55 PM,48.2,46.4,93,30.10,3.0,NW,6.9,-,N/A,,Overcast,320,2012-11-03 02:55:00
8:15 PM,48.2,46.4,93,30.10,3.0,NW,4.6,-,N/A,,Overcast,320,2012-11-03 03:15:00
8:35 PM,48.2,46.4,93,30.10,3.0,NW,4.6,-,N/A,,Overcast,320,2012-11-03 03:35:00
8:55 PM,48.2,46.4,93,30.10,3.0,Calm,Calm,-,N/A,,Overcast,0,2012-11-03 03:55:00
9:15 PM,46.4,44.6,93,30.10,2.5,Calm,Calm,-,N/A,,Overcast,0,2012-11-03 04:15:00
9:35 PM,44.6,42.8,93,30.10,3.0,East,3.5,-,N/A,,Overcast,80,2012-11-03 04:35:00
9:55 PM,44.6,44.6,100,30.10,2.5,ESE,3.5,-,N/A,,Overcast,110,2012-11-03 04:55:00
10:15 PM,46.4,44.6,93,30.10,2.0,SE,3.5,-,N/A,,Overcast,130,2012-11-03 05:15:00
10:35 PM,46.4,46.4,100,30.10,0.8,Calm,Calm,-,N/A,,Overcast,0,2012-11-03 05:35:00
10:55 PM,44.6,44.6,100,30.11,0.5,Calm,Calm,-,N/A,Fog,Fog,0,2012-11-03 05:55:00
11:15 PM,44.6,44.6,100,30.11,0.2,Calm,Calm,-,N/A,Fog,Fog,0,2012-11-03 06:15:00
11:35 PM,42.8,42.8,100,30.11,0.2,ESE,3.5,-,N/A,Fog,Fog,110,2012-11-03 06:35:00
11:55 PM,41.0,41.0,100,30.10,0.2,ESE,3.5,-,N/A,Fog,Fog,120,2012-11-03 06:55:00